Home > Weather > Pratapgarh > Past weeks

Flag for India Past Weather in Pratapgarh, Uttar Pradesh, India — Yesterday and Last 2 Weeks

Now
86 °F

Passing clouds.


Feels Like: 102 °F
Forecast: 86 / 98 °F
Wind: 2 mph from North

Location: Lucknow / Amausi

Current Time: Jun 26, 2016 at 2:50:22 AM

Latest Report: Jun 26, 2016 at 2:00 AM


Visibility: 2 mi

Pressure: 29.59 "Hg

Humidity: 84%

Dew Point: 81 °F

Location of PratapgarhLocation

Past Weather in Pratapgarh — Graph

°F

Pratapgarh Temperature Yesterday

Maximum temperature yesterday: 100 °F (at 1:30 PM)
Minimum temperature yesterday: 84 °F (at 3:00 AM)
Average temperature yesterday: 90 °F

High & Low Weather Summary for the Past Weeks

 TemperatureHumidityPressure
High111 °F (Jun 11, 4:00 PM)100% (Jun 15, 5:30 PM)29.68 "Hg (Jun 15, 5:30 PM)
Low75 °F (Jun 21, 7:30 AM)25% (Jun 11, 4:00 PM)29.36 "Hg (Jun 14, 5:00 PM)
Average93 °F65%29.51 "Hg
* Reported Jun 11 1:00 AM — Jun 26 1:00 AM, Pratapgarh, Weather by CustomWeather, © 2016

Note: Actual official high and low records may vary slightly from our data, if they occured in-between our weather recording intervals... More about our weather records

Advertising

Pratapgarh Weather History for the Previous 24 Hours

Scroll right to see more
 ConditionsComfort  
Time TempWeatherWind HumidityBarometerVisibility
1:00 AM
Sun, Jun 26
86 °FPassing clouds.2 mph84%29.59 "Hg2 mi
12:00 AM86 °FPassing clouds.2 mph84%29.62 "Hg2 mi
11:00 PM
Sat, Jun 25
86 °FPassing clouds.2 mph84%29.59 "Hg2 mi
10:00 PM86 °FPassing clouds.3 mph84%29.59 "Hg2 mi
9:00 PM88 °FPassing clouds.5 mph79%29.56 "Hg2 mi
8:30 PM88 °FPartly cloudy.5 mph79%29.53 "Hg2 mi
8:00 PM88 °FPartly cloudy.5 mph79%29.53 "Hg2 mi
7:30 PM88 °FBroken clouds.3 mph79%29.53 "Hg2 mi
7:00 PM90 °FScattered clouds.5 mph75%29.50 "Hg2 mi
6:30 PM90 °FBroken clouds.5 mph75%29.53 "Hg2 mi
6:00 PM91 °FMore clouds than sun.3 mph75%29.53 "Hg2 mi
5:30 PM86 °FMore clouds than sun.5 mph89%29.53 "Hg2 mi
5:00 PM91 °FMore clouds than sun.5 mph80%29.50 "Hg2 mi
4:30 PM91 °FMore clouds than sun.8 mph75%29.53 "Hg1 mi
4:00 PM91 °FMore clouds than sun.9 mph63%29.53 "Hg1 mi
3:30 PM90 °FLight rain. More clouds than sun.6 mph84%29.53 "Hg1 mi
3:00 PM97 °FRain. Broken clouds.10 mph63%29.50 "Hg1 mi
2:30 PM100 °FBroken clouds.5 mph57%29.53 "Hg3 mi
2:00 PM100 °FBroken clouds.3 mph60%29.53 "Hg3 mi
1:30 PM100 °FBroken clouds.2 mph57%29.53 "Hg3 mi
12:30 PM99 °FBroken clouds.2 mph60%29.56 "Hg3 mi
12:00 PM99 °FBroken clouds.3 mph60%29.59 "Hg3 mi
11:30 AM97 °FBroken clouds.2 mph60%29.59 "Hg3 mi
10:30 AM95 °FBroken clouds.3 mph67%29.62 "Hg3 mi
10:00 AM93 °FBroken clouds.5 mph67%29.62 "Hg3 mi
9:30 AM93 °FBroken clouds.5 mph71%29.59 "Hg2 mi
9:00 AM90 °FBroken clouds.7 mph79%29.59 "Hg2 mi
8:30 AM90 °FBroken clouds.7 mph79%29.59 "Hg2 mi
8:00 AM88 °FScattered clouds.7 mph84%29.59 "Hg2 mi
7:30 AM88 °FBroken clouds.7 mph89%29.59 "Hg2 mi
7:00 AM86 °FPartly sunny.7 mph94%29.56 "Hg2 mi
6:30 AM86 °FPartly sunny.6 mph89%29.56 "Hg2 mi
6:00 AM84 °FScattered clouds.6 mph94%29.56 "Hg2 mi
5:30 AM84 °FPassing clouds.3 mph94%29.56 "Hg2 mi
5:00 AM84 °FPassing clouds.6 mph89%29.56 "Hg2 mi
4:00 AM84 °FPassing clouds.5 mph89%29.53 "Hg2 mi
3:00 AM84 °FPartly cloudy.5 mph89%29.56 "Hg2 mi
2:00 AM86 °FPartly cloudy.5 mph79%29.53 "Hg2 mi
Weather by CustomWeather, © 2016

See weather overviewHow to use our weather pages